Hourly Data Report for July 07, 2021

CAMPBELL RIVER A
BRITISH COLUMBIA
Current Station Operator: NAVCAN

49°57'07.000" N
125°16'23.000" W
108.80 m
1021270
YBL

Download Data

Hourly Data (July 2021)
Hourly Data Report for July 7, 2021
TIME
LST
Temp Definition
°C
Dew Point Definition
°C
Rel Hum Definition
%
Precip. Amount Definition
mm

Wind Dir Definition
10's deg

Wind Spd Definition
km/h
Visibility Definition
km
Stn Press Definition
kPa
Hmdx Definition


Wind Chill Definition


Weather Definition


00:00 16.9 12.1 73 LegendMM 32 16 LegendMM 99.93     LegendNANA
01:00 16.6 12.2 75 LegendMM 32 22 LegendMM 99.94     LegendNANA
02:00 15.1 11.9 81 LegendMM 30 14 LegendMM 99.97     LegendNANA
03:00 13.9 11.4 84 LegendMM 29 8 LegendMM 100.00     LegendNANA
04:00 13.3 10.9 85 LegendMM 29 10 LegendMM 100.00     LegendNANA
05:00 13.1 10.8 85 LegendMM 31 13 LegendMM 100.02     LegendNANA
06:00 14.3 10.7 78 LegendMM 32 15 LegendMM 100.05     LegendNANA
07:00 16.3 11.2 72 LegendMM 31 12 LegendMM 100.07     LegendNANA
08:00 17.9 11.7 67 LegendMM 32 11 LegendMM 100.09     LegendNANA
09:00 17.9 12.2 69 LegendMM 4 7 LegendMM 100.09     LegendNANA
10:00 21.4 13.0 58 LegendMM 7 8 LegendMM 100.08     LegendNANA
11:00 21.6 12.5 56 LegendMM 8 9 LegendMM 100.13     LegendNANA
12:00 21.8 13.4 58 LegendMM 12 10 LegendMM 100.16 25   LegendNANA
13:00 22.2 13.3 56 LegendMM 8 17 LegendMM 100.17 25   LegendNANA
14:00 21.7 15.5 67 LegendMM 9 15 LegendMM 100.15 26   LegendNANA
15:00 21.6 15.2 67 LegendMM 10 18 LegendMM 100.16 26   LegendNANA
16:00 21.4 15.4 68 LegendMM 10 11 LegendMM 100.14 26   LegendNANA
17:00 20.8 15.4 71 LegendMM 9 12 LegendMM 100.16 25   LegendNANA
18:00 19.9 15.5 76 LegendMM 10 11 LegendMM 100.16     LegendNANA
19:00 19.2 15.8 80 LegendMM 10 7 LegendMM 100.17     LegendNANA
20:00 18.5 15.2 81 LegendMM 5 8 LegendMM 100.19     LegendNANA
21:00 16.3 14.7 90 LegendMM 29 1 LegendMM 100.23     LegendNANA
22:00 15.1 14.3 95 LegendMM 29 4 LegendMM 100.26     LegendNANA
23:00 14.5 14.0 97 LegendMM 29 4 LegendMM 100.29     LegendNANA

Notes on Data Quality.

Legend

  • E = Estimated
  • M = Missing
  • NA = Not Available*
  • [empty] = Indicates an unobserved value
Date modified: